Regional Weather Roundup
Issued by NWS

Home | Current Version | Previous Version | Graphics & Text | Print | Product List | Glossary On
Versions: 1 2 3 4 5 6 7 8 9 10 11 12 13 14 15 16 17 18 19 20 21 22 23 24 25 26 27
000
ASUS45 KBOU 220307
RWRCO

WEATHER ROUNDUP FOR COLORADO
NATIONAL WEATHER SERVICE DENVER/BOULDER CO
900 PM MDT FRI JUL 21 2017

NOTE: "FAIR" INDICATES FEW OR NO CLOUDS BELOW 12000 FEET WITH NO
SIGNIFICANT WEATHER AND/OR OBSTRUCTIONS TO VISIBILITY.

COZ001>005-013-030-031-220400-
...NORTHWEST COLORADO...

CITY           SKY/WX    TMP DP  RH WIND       PRES   REMARKS
CRAIG          FAIR      63  54  72 SE12      30.26S
HAYDEN         FAIR     N/A N/A N/A SE24G30   30.27F
MEEKER         FAIR      68  51  54 E3        30.27R
RABBIT EARS PA CLOUDY    46  45  93 NE8G16    30.61R
STEAMBOAT SPGS CLOUDY    57  54  88 E8        30.34F
WALDEN         CLOUDY    54  52  94 SE7       30.46F
$$

COZ006>008-011-220400-
...WEST CENTRAL VALLEYS...

CITY           SKY/WX    TMP DP  RH WIND       PRES   REMARKS
GRAND JUNCTION LGT RAIN  67  64  90 SW5       30.21R
MONTROSE       FAIR      69  56  62 NW16      30.26R
EAGLE          RAIN      60  57  89 W7        30.39S
RIFLE          FAIR      64  62  93 E5        30.26R
DELTA          FAIR      74  57  55 NW7G16    30.19R
NUCLA          CLOUDY    70  52  52 NW15G23   30.26R
$$

COZ017>023-064>068-220400-
...SOUTHWEST COLORADO...

CITY           SKY/WX    TMP DP  RH WIND       PRES   REMARKS
DURANGO        FAIR      62  54  74 NW6       30.23S
CORTEZ         FAIR      72  60  66 SW3       30.18R
PAGOSA SPRINGS FAIR      62  52  69 NW5       30.33R
TELLURIDE      TSTM      58  56  91 CALM      30.47R
WOLF CREEK PAS FAIR      46  41  81 NE10G18   30.69R THUNDER
$$

COZ009-010-012-014-032>034-037-058>063-220400-
...CENTRAL COLORADO...

CITY           SKY/WX    TMP DP  RH WIND       PRES   REMARKS
ASPEN          CLOUDY    62  53  72 E5        30.39R
BUENA VISTA    FAIR      64  48  56 CALM      30.37R
COPPER MTN     CLOUDY    52  45  76 NW9       30.68S
BERTHOUD PASS  LGT RAIN  41  28  60 W16       30.72R VSB 1/2
COTTONWOOD PAS MOCLDY    63  43  48 CALM      30.51R
GUNNISON       FAIR      61  53  75 CALM      30.34R
KREMMLING      CLOUDY    66  52  59 CALM      30.42R
LEADVILLE      CLOUDY    53  47  79 CALM      30.50R
MONARCH PASS   FAIR      50  41  71 E17       30.74S
SALIDA         FAIR      70  48  45 N8        30.39S
SUNLIGHT       MOCLDY    46  45  93 NE5       30.62S
WILKERSON PASS MOCLDY    50  41  71 NE3       30.64S
$$

COZ069>075-220400-
...SAN LUIS VALLEY/SANGRE DE CRISTO MOUNTAINS...

CITY           SKY/WX    TMP DP  RH WIND       PRES   REMARKS
ALAMOSA        FAIR      70  44  39 NW7       30.24R
DEL NORTE      FAIR      68  46  44 W12G24    30.33R
LA VETA PASS   NOT AVBL
SAGUACHE         N/A    N/A N/A N/A MISG        N/A
$$

COZ035-036-038>040-220400-
...NORTHERN COLORADO FRONT RANGE...

CITY           SKY/WX    TMP DP  RH WIND       PRES   REMARKS
DENVER INTL AP MOCLDY    67  56  67 CALM      30.20R
DMNS CITY PARK   N/A     71  54  55 N2G10     30.20S
AURORA         MOCLDY    69  56  63 NW8       30.22R
FRONT RANGE AP FAIR      70  55  60 N9        30.21R
ERIE MUNI ARPT FAIR      68  58  70 W7        30.18S
BOULDER MUN AP FAIR      66  59  77 CALM      30.20S
CENTENNIAL     CLOUDY    70  54  56 N8        30.23R
BROOMFIELD     FAIR      68  54  60 N10       30.22S
FORT COLLINS   LGT RAIN  66  57  72 N18       30.24R
LONGMONT       DRIZZLE   68  59  72 NW8       30.21S
$$

COZ041-046-047-076>085-087-088-220400-
...PIKES PEAK/PALMER DIVIDE AND SOUTHERN FOOTHILLS...

CITY           SKY/WX    TMP DP  RH WIND       PRES   REMARKS
COLO. SPRINGS  MOCLDY    74  52  46 N26G39    30.23R
A. F. ACADEMY  CLOUDY    68  53  59 N13       30.27R
SCHRIEVER AFB  MOCLDY    66  55  68 N23G30    30.25R
CHEYENNE MTN   LGT RAIN  66  52  59 NW14G23   30.21R
ELLICOTT       TSTM     N/A N/A N/A N28G40    30.21R
FALCON           N/A     64  54  69 N10G21    30.33R
FORT CARSON    LGT RAIN  72  55  56 N24G36    30.16R
LIMON          TSTM      64  60  87 W15       30.25R
MONUMENT HILL  CLOUDY    61  52  72 N3        30.36R
CANON CITY     CLOUDY    73  57  56 SW9       30.16R
WALSENBURG     MOCLDY    75  54  46 NE9G18    30.15R
TRINIDAD       FAIR      79  45  29 CALM      30.08R
$$

COZ042>045-048>051-090-091-220400-
...NORTHEAST COLORADO...

CITY           SKY/WX    TMP DP  RH WIND       PRES   REMARKS
GREELEY ARPT   FAIR      71  60  68 NW10      30.20R
AKRON          TSTM      68  59  73 NW18      30.12R
BURLINGTON     FAIR      82  56  40 SE3       29.97R
WRAY           NOT AVBL
YUMA           MOCLDY    73  48  40 W22G32    30.02R
STERLING       DRIZZLE   72  61  68 NW20      30.07S
HOLYOKE        FAIR      84  46  26 N8        29.96R
FORT MORGAN    LGT RAIN  67  57  69 NW16      30.15R
$$

COZ086-089-092>099-220400-
...SOUTHEAST COLORADO...

CITY           SKY/WX    TMP DP  RH WIND       PRES   REMARKS
PUEBLO         MOCLDY    83  49  30 W17G29    30.10R
LA JUNTA       FAIR      85  54  34 NE6       29.96R
LAMAR          FAIR      83  51  33 S13       29.91R
SPRINGFIELD      N/A     77  49  37 S13       30.00R
$$




USA.gov is the U.S. government's official web portal to all federal, state and local government web resources and services.